Location: Plainartige
(45.6866°N, 1.7993°E)
Time: 11:24:52
(UTC+00:00)

Gurwin Techsat 1B - Pass Details

Date: 04 July 2022
Orbit: 812 x 813 km, 98.8° (Epoch: 09 August)

Event Time Altitude Azimuth Distance (km) Brightness Sun altitude
Rises 00:52:11 0° 35° (NE) 3,344 13.1 -20.3°
Reaches altitude 10° 00:56:29 10° 68° (ENE) 2,405 11.5 -20.1°
Maximum altitude 00:58:08 11° 87° (E) 2,305 11.2 -20.0°
Drops below altitude 10° 00:59:48 10° 105° (ESE) 2,399 11.1 -20.0°
Enters shadow 01:02:32 - 129° (SE) 2,912 11.3 -19.8°
